Regional Weather Roundup
Issued by NWS

Home | Current Version | Previous Version | Text Only | Print | Product List | Glossary Off
Versions: 1 2 3 4 5 6 7 8 9 10 11 12 13 14 15 16 17 18 19 20 21 22 23 24 25 26 27 28 29 30 31 32 33 34 35 36 37 38 39 40 41 42 43 44 45 46 47 48 49 50

000
ASUS43 KMKX 211600
RWRWI

WISCONSIN REGIONAL WEATHER ROUNDUP
NATIONAL WEATHER SERVICE MILWAUKEE/SULLIVAN WI
1000 AM CST TUE FEB 21 2017

NOTE: "FAIR" INDICATES FEW OR NO CLOUDS BELOW 12,000 FEET WITH NO
SIGNIFICANT WEATHER AND/OR OBSTRUCTIONS TO VISIBILITY.

WIZ001-002-006>008-014>016-023>028-211700-
NORTHWEST WISCONSIN

CITY           SKY/WX    TMP DP  RH WIND       PRES   REMARKS
SUPERIOR ARPT  CLOUDY    36  35  95 SW12      29.85R WCI  28
ASHLAND        MOSUNNY   42  36  79 SW14      29.84S
HAYWARD        CLOUDY    36  34  92 S9        29.87R WCI  29
SIREN          CLOUDY    35  35  99 S5        29.88S FOG     WCI  31
CUMBERLAND     FOG       32  32 100 S5        29.89R VSB<1/4 WCI  27
RICE LAKE      FOG       35  35 100 S7        29.91S VSB 3/4 WCI  29
CHETEK         CLOUDY    36  35  97 W3        29.91R FOG
LADYSMITH      CLOUDY    36  36  97 S7        29.91R FOG     WCI  31
EAU CLAIRE     NOT AVBL
MENOMONIE      FOG       37  37  99 SE5       29.92S VSB 1   WCI  34
NEW RICHMOND   FOG       36  36 100 S7        29.90S VSB 1/4 WCI  31
OSCEOLA        NOT AVBL
$$

WIZ003>005-009-010-017-018-211700-
NORTH CENTRAL WISCONSIN

CITY           SKY/WX    TMP DP  RH WIND       PRES   REMARKS
MANITOWISH WTR CLOUDY    37  37 100 SW7       29.84R WCI  31
ARBOR VITAE    SUNNY     39  37  91 W7        29.84S WCI  34
WOODRUFF       SUNNY     39  37  91 W7        29.84S WCI  34
RHINELANDER    SUNNY     43  38  82 SW7       29.85S
EAGLE RIVER    SUNNY     39  36  89 SW7       29.83S WCI  34
LAND O LAKES   SUNNY     42  35  75 W8        29.83S
PHILLIPS       CLOUDY    35  35 100 SW6       29.87S WCI  30
TOMAHAWK       SUNNY     40  35  83 W3        29.87R
MEDFORD        CLOUDY    35  34  98 SW5       29.88S FOG     WCI  30
MERRILL        NOT AVBL
$$

WIZ029-030-035-036-043>047-211700-
CENTRAL WISCONSIN

CITY           SKY/WX    TMP DP  RH WIND       PRES   REMARKS
WAUSAU         SUNNY     40  36  86 SW6       29.88S
MOSINEE        NOT AVBL
MARSHFIELD     CLOUDY    42  38  85 SW7       29.90S
STEVENS POINT  PTSUNNY   38  36  93 W6        29.91S WCI  33
WAUPACA        SUNNY     49  41  72 W5        29.92S
WAUTOMA        SUNNY     48  40  73 W5        29.93
WISC RAPIDS    MOSUNNY   44  40  85 SW6       29.91F
CAMP DOUGLAS   NOT AVBL
$$

WIZ011>013-019>022-031-037>040-048>050-211700-
NORTHEAST WISCONSIN

CITY           SKY/WX    TMP DP  RH WIND       PRES   REMARKS
ANTIGO         SUNNY     39  37  90 W6        29.88R
SHAWANO        SUNNY     47  40  76 W7        29.90R
OCONTO         SUNNY     50  40  70 W9        29.88S
STURGEON BAY   SUNNY     48  42  80 W12       29.88R
GREEN BAY      SUNNY     49  43  80 W10       29.90S
MANITOWOC      NOT AVBL
APPLETON       MOSUNNY   46  39  76 W10       29.90R
CLINTONVILLE   SUNNY     46  37  71 W5        29.90S
OSHKOSH        SUNNY     48  42  80 W8        29.91S
$$

WIZ032>034-041-042-053>061-211700-
SOUTHWEST WISCONSIN

CITY           SKY/WX    TMP DP  RH WIND       PRES   REMARKS
LA CROSSE      SUNNY     45  38  76 SE6       29.93F
SPARTA         MOSUNNY   42  40  89 SW5       29.93F
VIROQUA        SUNNY     44  40  88 CALM      29.93S
BOSCOBEL       SUNNY     45  40  82 S5        29.96R
PRAIRIE DU CHI SUNNY     44  39  85 CALM      29.96S
PLATTEVILLE    SUNNY     45  44  97 W5        29.95S
$$

WIZ056-057-062-063-064-067-068-211700-
SOUTH CENTRAL WISCONSIN

CITY           SKY/WX    TMP DP  RH WIND       PRES   REMARKS
REEDSBURG      CLOUDY    44  43  97 CALM      29.93F
BARABOO/DELLS  PTSUNNY   44  40  86 CALM      29.93F
LONE ROCK      NOT AVBL
MINERAL POINT  SUNNY     45  45 100 W3        29.94S
MADISON        CLOUDY    45  43  93 VRB3      29.94R
MIDDLETON        N/A     46  45  95 NW3       29.94S
WATERTOWN      CLOUDY    46  46 100 CALM      29.93S
MONROE         SUNNY     46  43  87 CALM      29.94R
JANESVILLE     NOT AVBL
$$

WIZ051-052-058>065-066-070>072-211700-
SOUTHEAST WISCONSIN

CITY           SKY/WX    TMP DP  RH WIND       PRES   REMARKS
MILWAUKEE      PTSUNNY   54  46  74 W6        29.94S
WAUKESHA       MOSUNNY   48  45  87 NW10      29.95S
MILWAUKEE/TIMM SUNNY     52  45  76 W8        29.94S
RACINE         PTSUNNY   55  48  77 W7        29.94S
KENOSHA        PTSUNNY   55  50  83 NW8       29.94R
FOND DU LAC    MOSUNNY   48  41  76 VRB3      29.92F
SHEBOYGAN      SUNNY     49  43  80 W10       29.91S
WEST BEND      MOSUNNY   48  45  87 W7        29.93R
JUNEAU         CLOUDY    44  41  89 NW3       29.94R
$$

LSZ147-162-211700-
LAKE SUPERIOR

STATION/POSITION TIME  TEMP    WIND        PRES    WAVE
                       AIR SEA DIR/SP/G            HT/PER
                 (UTC) (F)     (DEG/KT/KT) (MB)    (FT/S)
DEVILS ISLAND    1500   35     240/ 19/ 23 1010.1R
PORT WING        1540   38     220/  6/  9 1010.5S
SAXON HARBOR     1530   45     210/  6/ 13 1009.8R
$$

LMZ867-665-643>646-211700-
LAKE MICHIGAN

STATION/POSITION TIME  TEMP    WIND        PRES    WAVE
                       AIR SEA DIR/SP/G            HT/PER
                 (UTC) (F)     (DEG/KT/KT) (MB)    (FT/S)
CHAMBERS ISLAND  1540   49     210/  6/ 10 1010.8R
NORTHPORT PIER   1540   51     270/  7/ 13 1010.8R
KEWAUNEE LAKESHO 1530   49     270/ 12/ 17 1011.7R
SHEBOYGAN LAKESH 1500   48     280/  9/ 11 1012.6F
PORT WASHINGTON  1540   52     290/  6/ 10 1014.2R
MILWAUKEE LAKESH 1530   52     280/  8/ 11   N/A
KENOSHA   LAKESH 1500   56     270/  7/ 11 1013.5
$$

TC  - TEMPERATURE IN CELSIUS
VSB - VISIBILITY IN STATUTE MILES
WCI - WIND CHILL INDEX
HX  - HEAT INDEX





USA.gov is the U.S. government's official web portal to all federal, state and local government web resources and services.